Date String (YYYY-MM-DD hh:mm:ss) UTC,Instrument flags,absolute air pressure of the measurement (hPa),sample flow rate (lpm),inlet stack bypass flow (lpm),air temperature of the measurement (°C),ambient temperature measured by the external sensor (°C),aerosol sample conditioner tube jacket temperature (°C),OPC LED temperature (°C),internal box temperature (°C),relative humidity of the measurement (%),span deviation,mass concentration of particles derived from Lorenz-Mie calculation of OPC scattering (μg/m³),mass concentration of particles derived from Lorenz-Mie calculation of OPC scattering (μg/m³),mass concentration of particles derived from Lorenz-Mie calculation of OPC scattering (μg/m³)
DateTimeUTC,F1_M11,P_M11,Q1_M11,Q2_M11,T1_M11,T2_M11,T3_M11,T4_M11,T5_M11,U1_M11,ZSPAN_M11,X0_M11,X2_M11,X1_M11
2024-02-09 10:00:00,SystemResetWarning,0820.8,4.99,000.00,018.3,017.5,000.0,026.9,020.0,15.3,0000.0,0004.46,0001.97,0001.52
2024-02-09 10:01:00,SystemResetWarning,0820.8,5.00,000.00,018.3,017.5,000.0,026.9,020.0,15.2,0000.0,0005.32,0002.00,0001.54
2024-02-09 10:02:00,SystemResetWarning,0820.8,4.99,000.00,018.3,017.5,000.0,026.8,020.0,15.3,0000.0,0005.35,0002.06,0001.54
2024-02-09 10:03:00,SystemResetWarning,0820.8,5.00,000.00,018.3,017.5,000.0,026.8,020.0,15.3,0000.0,0005.49,0002.10,0001.55
2024-02-09 10:04:00,SystemResetWarning,0820.8,5.00,000.00,018.3,017.5,000.0,026.8,020.0,15.3,0000.0,0005.57,0002.13,0001.56
2024-02-09 10:05:00,SystemResetWarning,0820.8,5.00,000.00,018.3,017.5,000.0,026.8,020.0,15.3,0000.0,0005.61,0002.12,0001.56
2024-02-09 10:06:00,SystemResetWarning,0820.8,5.01,000.00,018.3,017.6,000.0,026.9,020.1,15.4,0000.0,0005.81,0002.11,0001.57
2024-02-09 10:07:00,SystemResetWarning,0820.8,5.00,000.00,018.4,018.2,000.0,027.0,020.5,15.3,0000.0,0006.78,0002.12,0001.58
2024-02-09 10:08:00,SystemResetWarning,0820.8,5.00,000.00,018.6,018.9,000.0,027.1,020.9,15.1,0000.0,0006.66,0002.10,0001.57
2024-02-09 10:09:00,SystemResetWarning,0820.8,4.98,000.00,018.8,019.0,000.0,027.0,020.9,15.0,0000.0,0005.98,0002.07,0001.55
2024-02-09 10:10:00,SystemResetWarning,0820.8,4.99,000.00,018.8,018.9,000.0,027.0,020.8,15.1,0000.0,0005.98,0002.04,0001.55
2024-02-09 10:11:00,SystemResetWarning,0820.8,5.02,000.00,018.8,018.8,000.0,027.0,020.7,15.0,0000.0,0006.52,0001.99,0001.54
2024-02-09 10:12:00,SystemResetWarning,0820.8,5.00,000.00,018.8,018.7,000.0,026.9,020.6,14.8,0000.0,0006.80,0001.96,0001.53
2024-02-09 10:13:00,SystemResetWarning,0820.8,4.99,000.00,018.8,018.6,000.0,026.9,020.5,14.6,0000.0,0006.72,0001.95,0001.53
2024-02-09 10:14:00,SystemResetWarning,0820.8,4.99,000.00,018.8,018.5,000.0,027.0,020.5,14.5,0000.0,0006.55,0001.93,0001.53
2024-02-09 10:15:00,SystemResetWarning,0820.8,5.00,000.00,018.8,018.4,000.0,026.9,020.4,14.5,0000.0,0006.70,0001.97,0001.54
2024-02-09 10:16:00,SystemResetWarning,0820.8,5.01,000.00,018.7,018.3,000.0,026.9,020.4,14.5,0000.0,0006.66,0001.97,0001.53
2024-02-09 10:17:00,SystemResetWarning,0820.8,5.00,000.00,018.7,018.3,000.0,026.9,020.4,14.3,0000.0,0006.70,0001.96,0001.52
2024-02-09 10:18:00,SystemResetWarning,0820.7,4.99,000.00,018.7,018.2,000.0,026.9,020.3,14.3,0000.0,0005.55,0001.91,0001.48
2024-02-09 10:19:00,SystemResetWarning,0820.7,4.99,000.00,018.7,018.2,000.0,027.0,020.3,14.3,0000.0,0005.55,0001.92,0001.45
2024-02-09 10:20:00,SystemResetWarning,0820.7,5.00,000.00,018.7,018.1,000.0,027.0,020.3,14.2,0000.0,0005.52,0001.92,0001.44
2024-02-09 10:21:00,SystemResetWarning,0820.7,5.01,000.00,018.6,018.1,000.0,027.0,020.3,14.2,0000.0,0005.36,0001.90,0001.41
2024-02-09 10:22:00,SystemResetWarning,0820.7,5.01,000.00,018.6,018.0,000.0,027.0,020.2,14.1,0000.0,0004.77,0001.88,0001.39
2024-02-09 10:23:00,SystemResetWarning,0820.7,5.00,000.00,018.6,018.0,000.0,026.9,020.2,14.0,0000.0,0003.41,0001.88,0001.36
2024-02-09 10:24:00,SystemResetWarning,0820.7,5.00,000.00,018.6,018.0,000.0,026.9,020.2,14.1,0000.0,0003.03,0001.81,0001.33
2024-02-09 10:25:00,SystemResetWarning,0820.7,4.99,000.00,018.6,017.9,000.0,026.9,020.2,14.2,0000.0,0003.03,0001.77,0001.29
2024-02-09 10:26:00,SystemResetWarning,0820.7,4.99,000.00,018.5,017.9,000.0,026.9,020.2,14.2,0000.0,0002.80,0001.67,0001.24
2024-02-09 10:27:00,SystemResetWarning,0820.7,5.01,000.00,018.5,017.9,000.0,026.9,020.2,14.3,0000.0,0002.76,0001.61,0001.20
2024-02-09 10:28:00,SystemResetWarning,0820.7,5.02,000.00,018.5,017.9,000.0,026.9,020.1,14.4,0000.0,0002.54,0001.54,0001.16
2024-02-09 10:29:00,SystemResetWarning,0820.7,4.99,000.00,018.5,017.8,000.0,026.9,020.1,14.4,0000.0,0002.42,0001.53,0001.17
2024-02-09 10:30:00,SystemResetWarning,0820.7,5.00,000.00,018.5,017.8,000.0,026.9,020.1,14.5,0000.0,0002.43,0001.47,0001.15
2024-02-09 10:31:00,SystemResetWarning,0820.7,5.00,000.00,018.5,017.8,000.0,026.9,020.1,14.4,0000.0,0003.06,0001.43,0001.14
2024-02-09 10:32:00,SystemResetWarning,0820.8,4.99,000.00,018.4,017.8,000.0,026.9,020.1,14.5,0000.0,0003.33,0001.38,0001.12
2024-02-09 10:33:00,SystemResetWarning,0820.8,5.00,000.00,018.4,017.7,000.0,026.8,020.0,14.4,0000.0,0003.30,0001.38,0001.13
2024-02-09 10:34:00,SystemResetWarning,0820.8,5.01,000.00,018.4,017.7,000.0,026.8,020.0,14.4,0000.0,0003.30,0001.38,0001.13
2024-02-09 10:35:00,SystemResetWarning,0820.8,5.01,000.00,018.4,017.7,000.0,026.8,020.0,14.3,0000.0,0003.23,0001.36,0001.13
2024-02-09 10:36:00,SystemResetWarning,0820.8,5.00,000.00,018.4,017.7,000.0,026.8,020.0,14.3,0000.0,0003.27,0001.34,0001.14
2024-02-09 10:37:00,SystemResetWarning,0820.9,4.99,000.00,018.4,017.7,000.0,026.8,020.0,14.3,0000.0,0003.38,0001.35,0001.15
2024-02-09 10:38:00,SystemResetWarning,0820.9,5.00,000.00,018.4,017.6,000.0,026.8,020.0,14.4,0000.0,0003.26,0001.35,0001.16
2024-02-09 10:39:00,SystemResetWarning,0820.8,5.00,000.00,018.3,017.6,000.0,026.8,020.0,14.4,0000.0,0003.31,0001.37,0001.16
2024-02-09 10:40:00,SystemResetWarning,0820.9,5.00,000.00,018.3,017.6,000.0,026.8,020.0,14.4,0000.0,0003.42,0001.40,0001.15
2024-02-09 10:41:00,SystemResetWarning,0820.8,5.00,000.00,018.3,017.6,000.0,026.8,020.0,14.4,0000.0,0003.51,0001.45,0001.15
2024-02-09 10:42:00,SystemResetWarning,0820.9,5.01,000.00,018.3,017.6,000.0,026.8,020.0,14.3,0000.0,0003.09,0001.47,0001.14
2024-02-09 10:43:00,SystemResetWarning,0820.9,5.00,000.00,018.3,017.6,000.0,026.8,020.0,14.3,0000.0,0002.76,0001.47,0001.13
2024-02-09 10:44:00,SystemResetWarning,0820.8,5.00,000.00,018.3,017.6,000.0,026.8,020.0,14.2,0000.0,0002.67,0001.42,0001.11
2024-02-09 10:45:00,SystemResetWarning,0820.9,4.99,000.00,018.3,017.6,000.0,026.8,020.0,14.2,0000.0,0003.01,0001.41,0001.10
2024-02-09 10:46:00,SystemResetWarning,0820.9,5.00,000.00,018.3,017.6,000.0,026.8,020.0,14.2,0000.0,0003.08,0001.42,0001.10
2024-02-09 10:47:00,SystemResetWarning,0820.8,5.00,000.00,018.3,017.6,000.0,026.8,020.0,14.0,0000.0,0003.04,0001.42,0001.09
2024-02-09 10:48:00,SystemResetWarning,0820.9,5.01,000.00,018.3,017.6,000.0,026.8,020.0,14.0,0000.0,0002.98,0001.43,0001.08
2024-02-09 10:49:00,SystemResetWarning,0820.8,5.00,000.00,018.3,017.6,000.0,026.8,020.0,14.0,0000.0,0003.16,0001.45,0001.08
2024-02-09 10:50:00,SystemResetWarning,0820.8,5.00,000.00,018.3,017.5,000.0,026.8,020.0,14.0,0000.0,0003.26,0001.48,0001.08
2024-02-09 10:51:00,SystemResetWarning,0820.8,5.00,000.00,018.3,017.5,000.0,026.8,020.0,14.0,0000.0,0003.22,0001.45,0001.07
2024-02-09 10:52:00,SystemResetWarning,0820.8,4.99,000.00,018.3,017.5,000.0,026.8,020.0,13.9,0000.0,0002.96,0001.37,0001.06
2024-02-09 10:53:00,SystemResetWarning,0820.8,4.99,000.00,018.3,017.5,000.0,026.8,020.0,13.9,0000.0,0002.66,0001.35,0001.05
2024-02-09 10:54:00,SystemResetWarning,0820.8,5.00,000.00,018.3,017.5,000.0,026.8,020.0,13.8,0000.0,0002.68,0001.37,0001.05
2024-02-09 10:55:00,SystemResetWarning,0820.8,5.01,000.00,018.3,017.6,000.0,026.9,020.1,13.9,0000.0,0002.77,0001.40,0001.06
2024-02-09 10:56:00,SystemResetWarning,0820.8,5.01,000.00,018.4,018.2,000.0,027.0,020.4,13.9,0000.0,0002.37,0001.37,0001.05
2024-02-09 10:57:00,SystemResetWarning,0820.8,5.00,000.00,018.6,019.0,000.0,027.1,020.9,13.7,0000.0,0002.22,0001.33,0001.03
2024-02-09 10:58:00,SystemResetWarning,0820.8,4.99,000.00,018.8,019.1,000.0,027.0,020.9,13.4,0000.0,0002.18,0001.33,0001.04
2024-02-09 10:59:00,SystemResetWarning,0820.8,4.98,000.00,018.8,019.0,000.0,027.0,020.8,13.4,0000.0,0002.05,0001.30,0001.03
